| time (UTC) | temp F | wind direction | speed knots | gust knots | rain 1hr in | rain 24hr in | rain mn in | humidity % | barometer mb |
| 20260901094001 | 72 | 5 | 0.0 | 0.0 | 0.00 | 0.00 | 0.00 | 94 | 1018.1 |
| 20260901093506 | 72 | 5 | 0.0 | 0.0 | 0.00 | 0.00 | 0.00 | 94 | 1018.0 |
| 20260901093010 | 72 | 5 | 0.0 | 0.0 | 0.00 | 0.00 | 0.00 | 94 | 1018.1 |
| 20260901092504 | 72 | 5 | 0.0 | 0.0 | 0.00 | 0.00 | 0.00 | 94 | 1018.2 |
| 20260901092002 | 72 | 5 | 0.0 | 0.0 | 0.00 | 0.00 | 0.00 | 94 | 1018.2 |
| 20260901091503 | 72 | 5 | 0.0 | 0.0 | 0.00 | 0.00 | 0.00 | 94 | 1018.1 |
| 20260901091002 | 72 | 5 | 0.0 | 0.0 | 0.00 | 0.00 | 0.00 | 94 | 1018.1 |
| 20260901090502 | 72 | 5 | 0.0 | 0.0 | 0.00 | 0.00 | 0.00 | 94 | 1018.0 |
| 20260901090006 | 72 | 5 | 0.0 | 0.0 | 0.00 | 0.00 | 0.00 | 94 | 1018.0 |
| 20260901085502 | 72 | 5 | 0.0 | 0.0 | 0.00 | 0.00 | 0.00 | 94 | 1018.0 |
| 20260901085001 | 73 | 5 | 0.0 | 0.0 | 0.00 | 0.00 | 0.00 | 94 | 1017.9 |
| 20260901084505 | 73 | 5 | 0.0 | 0.0 | 0.00 | 0.00 | 0.00 | 94 | 1018.0 |
| 20260901084002 | 73 | 5 | 0.0 | 0.0 | 0.00 | 0.00 | 0.00 | 93 | 1017.8 |
| 20260901083502 | 73 | 5 | 0.0 | 0.0 | 0.00 | 0.00 | 0.00 | 93 | 1017.9 |
| 20260901083003 | 73 | 5 | 0.0 | 0.0 | 0.00 | 0.00 | 0.00 | 93 | 1018.1 |
| 20260901082502 | 73 | 5 | 0.0 | 0.0 | 0.00 | 0.00 | 0.00 | 93 | 1018.1 |
| 20260901082001 | 73 | 5 | 0.0 | 0.0 | 0.00 | 0.00 | 0.00 | 93 | 1018.1 |
| 20260901081502 | 73 | 5 | 0.0 | 0.0 | 0.00 | 0.00 | 0.00 | 93 | 1018.0 |
| 20260901081002 | 73 | 5 | 0.0 | 0.0 | 0.00 | 0.00 | 0.00 | 93 | 1018.1 |
| 20260901080502 | 73 | 5 | 0.0 | 0.0 | 0.00 | 0.00 | 0.00 | 93 | 1018.2 |
| 20260901080003 | 73 | 5 | 0.0 | 0.0 | 0.00 | 0.00 | 0.00 | 93 | 1018.1 |
| 20260901075503 | 73 | 5 | 0.0 | 0.0 | 0.00 | 0.00 | 0.00 | 93 | 1018.1 |
| 20260901075004 | 73 | 5 | 0.0 | 0.0 | 0.00 | 0.00 | 0.00 | 92 | 1018.1 |
| 20260901074503 | 74 | 5 | 0.0 | 0.0 | 0.00 | 0.00 | 0.00 | 92 | 1018.1 |
| 20260901074002 | 74 | 5 | 0.0 | 0.0 | 0.00 | 0.00 | 0.00 | 92 | 1018.0 |
| 20260901073502 | 74 | 5 | 0.0 | 0.0 | 0.00 | 0.00 | 0.00 | 92 | 1018.0 |
| 20260901073003 | 74 | 5 | 0.0 | 0.0 | 0.00 | 0.00 | 0.00 | 92 | 1018.0 |
| 20260901072503 | 74 | 5 | 0.0 | 0.0 | 0.00 | 0.00 | 0.00 | 91 | 1018.1 |
| 20260901072003 | 74 | 5 | 0.0 | 0.0 | 0.00 | 0.00 | 0.00 | 91 | 1018.1 |
| 20260901071502 | 74 | 5 | 0.0 | 0.0 | 0.00 | 0.00 | 0.00 | 91 | 1018.2 |
| 20260901071002 | 74 | 5 | 0.0 | 0.0 | 0.00 | 0.00 | 0.00 | 91 | 1018.3 |
| 20260901070502 | 75 | 5 | 0.0 | 0.0 | 0.00 | 0.00 | 0.00 | 90 | 1018.3 |
| 20260901070004 | 75 | 5 | 0.0 | 0.0 | 0.00 | 0.00 | 0.00 | 90 | 1018.4 |
| 20260901065503 | 75 | 5 | 0.0 | 0.0 | 0.00 | 0.00 | 0.00 | 90 | 1018.4 |
| 20260901065004 | 75 | 5 | 0.0 | 1.7 | 0.00 | 0.00 | 0.00 | 90 | 1018.4 |
| 20260901064503 | 75 | 5 | 0.0 | 1.7 | 0.00 | 0.00 | 0.00 | 90 | 1018.4 |
| 20260901064001 | 75 | 5 | 0.0 | 1.7 | 0.00 | 0.00 | 0.00 | 90 | 1018.3 |
| 20260901063502 | 75 | 28 | 0.0 | 2.6 | 0.00 | 0.00 | 0.00 | 90 | 1018.4 |
| 20260901063009 | 75 | 134 | 0.0 | 2.6 | 0.00 | 0.00 | 0.00 | 89 | 1018.5 |
| 20260901062502 | 75 | 355 | 0.0 | 0.0 | 0.00 | 0.00 | 0.00 | 90 | 1018.5 |
| 20260901062003 | 75 | 355 | 0.0 | 0.0 | 0.00 | 0.00 | 0.00 | 90 | 1018.5 |
| 20260901061505 | 75 | 355 | 0.0 | 0.0 | 0.00 | 0.00 | 0.00 | 90 | 1018.5 |
| 20260901061003 | 75 | 355 | 0.0 | 0.0 | 0.00 | 0.00 | 0.00 | 90 | 1018.6 |
| 20260901060503 | 75 | 355 | 0.0 | 0.9 | 0.00 | 0.00 | 0.00 | 90 | 1018.7 |
| 20260901060006 | 75 | 355 | 0.0 | 0.9 | 0.00 | 0.00 | 0.00 | 90 | 1018.7 |
| 20260901055505 | 75 | 355 | 0.0 | 0.0 | 0.00 | 0.00 | 0.00 | 90 | 1018.7 |
| 20260901055010 | 75 | 355 | 0.0 | 0.0 | 0.00 | 0.00 | 0.00 | 90 | 1018.8 |
| 20260901054504 | 75 | 355 | 0.0 | 0.0 | 0.00 | 0.00 | 0.00 | 90 | 1018.8 |
| 20260901054003 | 75 | 355 | 0.0 | 0.0 | 0.00 | 0.00 | 0.00 | 90 | 1018.8 |
| 20260901053503 | 76 | 355 | 0.0 | 0.0 | 0.00 | 0.00 | 0.00 | 90 | 1018.8 |
| 20260901053005 | 76 | 355 | 0.0 | 0.0 | 0.00 | 0.00 | 0.00 | 90 | 1018.9 |
| 20260901052502 | 76 | 355 | 0.0 | 0.0 | 0.00 | 0.00 | 0.00 | 90 | 1018.9 |
| 20260901052007 | 76 | 355 | 0.0 | 0.0 | 0.00 | 0.00 | 0.00 | 90 | 1019.0 |
| 20260901051503 | 76 | 355 | 0.0 | 1.7 | 0.00 | 0.00 | 0.00 | 90 | 1018.9 |
| 20260901051002 | 76 | 355 | 0.0 | 1.7 | 0.00 | 0.00 | 0.00 | 90 | 1019.0 |
| 20260901050503 | 76 | 355 | 0.0 | 1.7 | 0.00 | 0.00 | 0.00 | 90 | 1019.1 |
| 20260901050008 | 76 | 69 | 0.0 | 0.9 | 0.00 | 0.00 | 0.00 | 89 | 1019.1 |
| 20260901045503 | 76 | 69 | 0.0 | 0.0 | 0.00 | 0.00 | 0.00 | 89 | 1019.1 |
| 20260901045010 | 76 | 69 | 0.0 | 0.0 | 0.00 | 0.00 | 0.00 | 89 | 1019.2 |
| 20260901044506 | 77 | 69 | 0.0 | 0.0 | 0.00 | 0.00 | 0.00 | 88 | 1019.2 |
| 20260901044002 | 77 | 69 | 0.0 | 0.0 | 0.00 | 0.00 | 0.00 | 88 | 1019.2 |
| 20260901043506 | 77 | 69 | 0.0 | 0.0 | 0.00 | 0.00 | 0.00 | 88 | 1019.2 |
| 20260901043014 | 77 | 69 | 0.0 | 0.9 | 0.00 | 0.00 | 0.00 | 87 | 1019.2 |
| 20260901042504 | 77 | 69 | 0.0 | 0.9 | 0.00 | 0.00 | 0.00 | 87 | 1019.2 |
| 20260901042007 | 78 | 88 | 0.0 | 0.9 | 0.00 | 0.00 | 0.00 | 86 | 1019.1 |
| 20260901041508 | 78 | 88 | 0.0 | 0.9 | 0.00 | 0.00 | 0.00 | 86 | 1019.1 |
| 20260901041003 | 78 | 123 | 0.0 | 0.0 | 0.00 | 0.00 | 0.00 | 86 | 1019.0 |
| 20260901040506 | 78 | 123 | 0.0 | 0.0 | 0.00 | 0.00 | 0.00 | 85 | 1019.0 |
| 20260901040007 | 78 | 123 | 0.0 | 0.9 | 0.00 | 0.00 | 0.00 | 85 | 1019.0 |
| 20260901035505 | 78 | 123 | 0.0 | 1.7 | 0.00 | 0.00 | 0.00 | 85 | 1019.0 |
| 20260901035005 | 78 | 114 | 0.0 | 1.7 | 0.00 | 0.00 | 0.00 | 84 | 1019.1 |
| 20260901034509 | 79 | 202 | 0.9 | 3.5 | 0.00 | 0.00 | 0.00 | 84 | 1019.1 |
| 20260901034009 | 79 | 179 | 0.0 | 3.5 | 0.00 | 0.00 | 0.00 | 84 | 1019.1 |
| 20260901033506 | 79 | 126 | 0.0 | 5.2 | 0.00 | 0.00 | 0.00 | 84 | 1019.0 |
| 20260901033010 | 79 | 134 | 0.0 | 5.2 | 0.00 | 0.00 | 0.00 | 83 | 1018.9 |
| 20260901032504 | 79 | 153 | 0.9 | 3.5 | 0.00 | 0.00 | 0.00 | 83 | 1019.0 |
| 20260901032010 | 79 | 119 | 0.0 | 4.3 | 0.00 | 0.00 | 0.00 | 82 | 1018.9 |
| 20260901031507 | 79 | 138 | 0.0 | 6.1 | 0.00 | 0.00 | 0.00 | 82 | 1018.8 |
| 20260901031003 | 79 | 116 | 1.7 | 6.1 | 0.00 | 0.00 | 0.00 | 82 | 1018.9 |
| 20260901030507 | 79 | 101 | 0.0 | 4.3 | 0.00 | 0.00 | 0.00 | 82 | 1018.9 |
| 20260901030003 | 79 | 123 | 0.0 | 4.3 | 0.00 | 0.00 | 0.00 | 82 | 1019.0 |
| 20260901025506 | 79 | 165 | 0.0 | 2.6 | 0.00 | 0.00 | 0.00 | 83 | 1018.9 |
| 20260901025009 | 79 | 168 | 0.0 | 3.5 | 0.00 | 0.00 | 0.00 | 83 | 1018.9 |
| 20260901024506 | 79 | 150 | 0.0 | 3.5 | 0.00 | 0.00 | 0.00 | 83 | 1018.9 |
| 20260901024008 | 79 | 209 | 0.0 | 0.9 | 0.00 | 0.00 | 0.00 | 83 | 1018.9 |
| 20260901023505 | 79 | 108 | 0.0 | 0.9 | 0.00 | 0.00 | 0.00 | 83 | 1018.9 |
| 20260901023003 | 79 | 108 | 0.0 | 0.9 | 0.00 | 0.00 | 0.00 | 83 | 1018.9 |
| 20260901022506 | 79 | 110 | 0.0 | 0.0 | 0.00 | 0.00 | 0.00 | 82 | 1019.0 |
| 20260901022017 | 79 | 110 | 0.0 | 0.0 | 0.00 | 0.00 | 0.00 | 82 | 1019.0 |
| 20260901021505 | 79 | 110 | 0.0 | 0.0 | 0.00 | 0.00 | 0.00 | 82 | 1019.0 |
| 20260901021008 | 79 | 110 | 0.0 | 0.0 | 0.00 | 0.00 | 0.00 | 81 | 1019.1 |
| 20260901020513 | 79 | 110 | 0.0 | 0.9 | 0.00 | 0.00 | 0.00 | 81 | 1019.1 |
| 20260901020011 | 79 | 110 | 0.0 | 0.9 | 0.00 | 0.00 | 0.00 | 81 | 1019.1 |
| 20260901015507 | 80 | 110 | 0.0 | 0.0 | 0.00 | 0.00 | 0.00 | 80 | 1019.1 |
| 20260901015008 | 80 | 110 | 0.0 | 0.0 | 0.00 | 0.00 | 0.00 | 80 | 1019.1 |
| 20260901014504 | 80 | 110 | 0.0 | 0.0 | 0.00 | 0.00 | 0.00 | 80 | 1018.9 |
| 20260901014010 | 80 | 110 | 0.0 | 0.0 | 0.00 | 0.00 | 0.00 | 80 | 1018.9 |
| 20260901013510 | 80 | 111 | 0.0 | 0.0 | 0.00 | 0.00 | 0.00 | 79 | 1018.9 |
| 20260901013004 | 80 | 112 | 0.0 | 1.7 | 0.00 | 0.00 | 0.00 | 79 | 1018.9 |
| 20260901012509 | 80 | 112 | 0.0 | 1.7 | 0.00 | 0.00 | 0.00 | 79 | 1018.8 |
| 20260901012009 | 80 | 112 | 0.0 | 0.9 | 0.00 | 0.00 | 0.00 | 79 | 1018.8 |
| 20260901011504 | 80 | 342 | 0.0 | 0.9 | 0.00 | 0.00 | 0.00 | 79 | 1018.8 |
| 20260901011011 | 80 | 25 | 0.0 | 0.9 | 0.00 | 0.00 | 0.00 | 79 | 1018.7 |
| 20260901010513 | 80 | 25 | 0.0 | 0.0 | 0.00 | 0.00 | 0.00 | 80 | 1018.7 |
| 20260901010005 | 80 | 25 | 0.0 | 0.0 | 0.00 | 0.00 | 0.00 | 81 | 1018.7 |
| 20260901005514 | 80 | 25 | 0.0 | 0.0 | 0.00 | 0.00 | 0.00 | 80 | 1018.6 |
| 20260901005013 | 80 | 25 | 0.0 | 0.0 | 0.00 | 0.00 | 0.00 | 81 | 1018.6 |
| 20260901004508 | 80 | 25 | 0.0 | 0.0 | 0.00 | 0.00 | 0.00 | 80 | 1018.7 |
| 20260901004010 | 81 | 25 | 0.0 | 0.0 | 0.00 | 0.00 | 0.00 | 80 | 1018.8 |
| 20260901003516 | 81 | 25 | 0.0 | 0.0 | 0.00 | 0.00 | 0.00 | 80 | 1018.8 |
| 20260901003008 | 81 | 25 | 0.0 | 0.0 | 0.00 | 0.00 | 0.00 | 79 | 1018.9 |
| 20260901002510 | 81 | 25 | 0.0 | 0.0 | 0.00 | 0.00 | 0.00 | 79 | 1018.8 |
| 20260901002012 | 81 | 25 | 0.0 | 0.0 | 0.00 | 0.00 | 0.00 | 79 | 1018.7 |
| 20260901001510 | 81 | 25 | 0.0 | 0.0 | 0.00 | 0.00 | 0.00 | 78 | 1018.7 |
| 20260901001011 | 81 | 25 | 0.0 | 0.0 | 0.00 | 0.00 | 0.00 | 78 | 1018.6 |
| 20260901000511 | 82 | 25 | 0.0 | 0.0 | 0.00 | 0.00 | 0.00 | 78 | 1018.5 |
| 20260901000010 | 82 | 25 | 0.0 | 0.9 | 0.00 | 0.00 | 0.00 | 77 | 1018.4 |
| 20260831235511 | 82 | 25 | 0.0 | 0.9 | 0.00 | 0.00 | 0.00 | 77 | 1018.3 |
| 20260831235011 | 82 | 25 | 0.0 | 0.0 | 0.00 | 0.00 | 0.00 | 76 | 1018.3 |
| 20260831234518 | 83 | 25 | 0.0 | 0.0 | 0.00 | 0.00 | 0.00 | 76 | 1018.3 |
| 20260831234010 | 83 | 25 | 0.0 | 0.0 | 0.00 | 0.00 | 0.00 | 74 | 1018.3 |
| 20260831233509 | 84 | 25 | 0.0 | 0.0 | 0.00 | 0.00 | 0.00 | 73 | 1018.3 |
| 20260831233019 | 84 | 25 | 0.0 | 0.0 | 0.00 | 0.00 | 0.00 | 72 | 1018.4 |
| 20260831232510 | 84 | 25 | 0.0 | 0.0 | 0.00 | 0.00 | 0.00 | 72 | 1018.4 |
| 20260831232015 | 85 | 25 | 0.0 | 0.0 | 0.00 | 0.00 | 0.00 | 72 | 1018.4 |
| 20260831231513 | 85 | 25 | 0.0 | 0.0 | 0.00 | 0.00 | 0.00 | 72 | 1018.3 |
| 20260831231012 | 85 | 25 | 0.0 | 0.0 | 0.00 | 0.00 | 0.00 | 69 | 1018.3 |
| 20260831230512 | 86 | 25 | 0.0 | 0.0 | 0.00 | 0.00 | 0.00 | 68 | 1018.2 |
| 20260831230015 | 86 | 25 | 0.0 | 0.0 | 0.00 | 0.00 | 0.00 | 67 | 1018.2 |
| 20260831225511 | 86 | 25 | 0.0 | 0.0 | 0.00 | 0.00 | 0.00 | 67 | 1018.2 |
| 20260831225010 | 87 | 25 | 0.0 | 0.0 | 0.00 | 0.00 | 0.00 | 67 | 1018.2 |
| 20260831224516 | 87 | 25 | 0.0 | 0.0 | 0.00 | 0.00 | 0.00 | 67 | 1018.2 |
| 20260831224012 | 87 | 25 | 0.0 | 0.0 | 0.00 | 0.00 | 0.00 | 67 | 1018.2 |
| 20260831223512 | 88 | 25 | 0.0 | 0.0 | 0.00 | 0.00 | 0.00 | 65 | 1018.2 |
| 20260831223016 | 88 | 25 | 0.0 | 1.7 | 0.00 | 0.00 | 0.00 | 65 | 1018.2 |
| 20260831222511 | 88 | 25 | 0.0 | 1.7 | 0.00 | 0.00 | 0.00 | 65 | 1018.2 |
| 20260831222013 | 88 | 25 | 0.0 | 1.7 | 0.00 | 0.00 | 0.00 | 64 | 1018.3 |
| 20260831221517 | 89 | 324 | 0.0 | 2.6 | 0.00 | 0.00 | 0.00 | 62 | 1018.3 |
| 20260831221010 | 89 | 309 | 0.0 | 2.6 | 0.00 | 0.00 | 0.00 | 61 | 1018.2 |
| 20260831220512 | 89 | 329 | 0.0 | 2.6 | 0.00 | 0.00 | 0.00 | 62 | 1018.2 |
| 20260831220024 | 89 | 333 | 0.0 | 2.6 | 0.00 | 0.00 | 0.00 | 60 | 1018.1 |
| 20260831215515 | 90 | 5 | 0.0 | 1.7 | 0.00 | 0.00 | 0.00 | 60 | 1018.2 |
| 20260831215012 | 90 | 355 | 0.0 | 2.6 | 0.00 | 0.00 | 0.00 | 59 | 1018.1 |
| 20260831214523 | 90 | 311 | 0.0 | 2.6 | 0.00 | 0.00 | 0.00 | 58 | 1018.1 |
| 20260831214015 | 90 | 355 | 0.0 | 2.6 | 0.00 | 0.00 | 0.00 | 58 | 1018.0 |
| 20260831213514 | 90 | 39 | 0.0 | 2.6 | 0.00 | 0.00 | 0.00 | 59 | 1018.1 |
| 20260831213032 | 90 | 313 | 0.9 | 2.6 | 0.00 | 0.00 | 0.00 | 56 | 1018.1 |
| 20260831212517 | 90 | 341 | 0.0 | 1.7 | 0.00 | 0.00 | 0.00 | 57 | 1018.2 |
| 20260831212018 | 90 | 327 | 0.0 | 3.5 | 0.00 | 0.00 | 0.00 | 58 | 1018.2 |
| 20260831211522 | 90 | 327 | 0.0 | 4.3 | 0.00 | 0.00 | 0.00 | 57 | 1018.2 |
| 20260831211014 | 90 | 344 | 1.7 | 4.3 | 0.00 | 0.00 | 0.00 | 56 | 1018.2 |
| 20260831210508 | 90 | 343 | 2.6 | 4.3 | 0.00 | 0.00 | 0.00 | 56 | 1018.2 |
| 20260831210025 | 91 | 346 | 0.0 | 4.3 | 0.00 | 0.00 | 0.00 | 56 | 1018.1 |
| 20260831205514 | 91 | 47 | 0.0 | 3.5 | 0.00 | 0.00 | 0.00 | 57 | 1018.1 |
| 20260831205010 | 91 | 355 | 0.0 | 3.5 | 0.00 | 0.00 | 0.00 | 55 | 1018.1 |
| 20260831204523 | 91 | 348 | 0.0 | 3.5 | 0.00 | 0.00 | 0.00 | 57 | 1018.1 |
| 20260831204016 | 91 | 14 | 0.0 | 3.5 | 0.00 | 0.00 | 0.00 | 57 | 1018.1 |
| 20260831203509 | 91 | 335 | 0.0 | 2.6 | 0.00 | 0.00 | 0.00 | 57 | 1018.2 |
| 20260831203025 | 91 | 335 | 0.0 | 3.5 | 0.00 | 0.00 | 0.00 | 55 | 1018.2 |
| 20260831202513 | 91 | 306 | 0.0 | 7.0 | 0.00 | 0.00 | 0.00 | 55 | 1018.2 |
| 20260831202012 | 92 | 318 | 0.9 | 7.0 | 0.00 | 0.00 | 0.00 | 54 | 1018.3 |
| 20260831201537 | 92 | 355 | 0.9 | 2.6 | 0.00 | 0.00 | 0.00 | 53 | 1018.3 |
| 20260831201023 | 92 | 5 | 0.9 | 2.6 | 0.00 | 0.00 | 0.00 | 52 | 1018.3 |
| 20260831200512 | 92 | 347 | 0.9 | 2.6 | 0.00 | 0.00 | 0.00 | 53 | 1018.3 |
| 20260831200032 | 92 | 328 | 0.9 | 3.5 | 0.00 | 0.00 | 0.00 | 52 | 1018.3 |
| 20260831195516 | 92 | 14 | 0.9 | 3.5 | 0.00 | 0.00 | 0.00 | 53 | 1018.3 |
| 20260831195015 | 92 | 321 | 0.0 | 5.2 | 0.00 | 0.00 | 0.00 | 51 | 1018.3 |
| 20260831194545 | 92 | 40 | 0.9 | 5.2 | 0.00 | 0.00 | 0.00 | 53 | 1018.3 |
| 20260831194016 | 92 | 336 | 0.9 | 5.2 | 0.00 | 0.00 | 0.00 | 54 | 1018.3 |
| 20260831193520 | 92 | 5 | 1.7 | 4.3 | 0.00 | 0.00 | 0.00 | 55 | 1018.3 |
| 20260831193028 | 92 | 347 | 0.0 | 4.3 | 0.00 | 0.00 | 0.00 | 58 | 1018.4 |
| 20260831192518 | 92 | 39 | 0.9 | 4.3 | 0.00 | 0.00 | 0.00 | 54 | 1018.3 |
| 20260831192014 | 93 | 319 | 1.7 | 4.3 | 0.00 | 0.00 | 0.00 | 53 | 1018.4 |
| 20260831191534 | 92 | 174 | 0.9 | 2.6 | 0.00 | 0.00 | 0.00 | 56 | 1018.4 |
| 20260831191015 | 92 | 63 | 0.0 | 2.6 | 0.00 | 0.00 | 0.00 | 58 | 1018.5 |
| 20260831190512 | 92 | 38 | 1.7 | 3.5 | 0.00 | 0.00 | 0.00 | 56 | 1018.6 |
| 20260831190030 | 91 | 300 | 0.9 | 3.5 | 0.00 | 0.00 | 0.00 | 58 | 1018.7 |
| 20260831185517 | 91 | 16 | 1.7 | 4.3 | 0.00 | 0.00 | 0.00 | 55 | 1018.8 |
| 20260831185013 | 92 | 331 | 0.9 | 4.3 | 0.00 | 0.00 | 0.00 | 57 | 1018.8 |
| 20260831184504 | 92 | 343 | 0.0 | 3.5 | 0.00 | 0.00 | 0.00 | 59 | 1018.8 |
| 20260831184008 | 91 | 5 | 0.0 | 3.5 | 0.00 | 0.00 | 0.00 | 56 | 1018.8 |
| 20260831183503 | 91 | 114 | 0.9 | 3.5 | 0.00 | 0.00 | 0.00 | 59 | 1018.8 |
| 20260831183007 | 91 | 42 | 0.9 | 3.5 | 0.00 | 0.00 | 0.00 | 55 | 1019.0 |
| 20260831182511 | 90 | 342 | 1.7 | 3.5 | 0.00 | 0.00 | 0.00 | 57 | 1018.9 |
| 20260831182004 | 91 | 51 | 0.9 | 3.5 | 0.00 | 0.00 | 0.00 | 56 | 1019.0 |
| 20260831181516 | 91 | 9 | 0.0 | 4.3 | 0.00 | 0.00 | 0.00 | 60 | 1019.0 |
| 20260831181010 | 91 | 313 | 0.0 | 4.3 | 0.00 | 0.00 | 0.00 | 58 | 1019.1 |
| 20260831180505 | 91 | 21 | 0.9 | 4.3 | 0.00 | 0.00 | 0.00 | 61 | 1019.2 |
| 20260831180006 | 91 | 261 | 0.0 | 0.0 | 0.00 | 0.00 | 0.00 | 61 | 1019.2 |
| 20260831175516 | 91 | 320 | 0.0 | 1.7 | 0.00 | 0.00 | 0.00 | 59 | 1019.2 |
| 20260831175003 | 91 | 72 | 0.0 | 2.6 | 0.00 | 0.00 | 0.00 | 58 | 1019.2 |
| 20260831174507 | 91 | 50 | 0.0 | 2.6 | 0.00 | 0.00 | 0.00 | 60 | 1019.3 |
| 20260831174011 | 90 | 59 | 0.9 | 3.5 | 0.00 | 0.00 | 0.00 | 61 | 1019.3 |
| 20260831173516 | 90 | 28 | 1.7 | 3.5 | 0.00 | 0.00 | 0.00 | 63 | 1019.3 |
| 20260831173010 | 90 | 24 | 0.9 | 3.5 | 0.00 | 0.00 | 0.00 | 59 | 1019.4 |
| 20260831172517 | 90 | 239 | 0.0 | 2.6 | 0.00 | 0.00 | 0.00 | 58 | 1019.3 |
| 20260831172002 | 89 | 336 | 1.7 | 4.3 | 0.00 | 0.00 | 0.00 | 58 | 1019.4 |
| 20260831171510 | 89 | 69 | 0.0 | 4.3 | 0.00 | 0.00 | 0.00 | 59 | 1019.4 |
| 20260831171012 | 89 | 333 | 0.9 | 3.5 | 0.00 | 0.00 | 0.00 | 59 | 1019.4 |
| 20260831170503 | 89 | 329 | 0.9 | 3.5 | 0.00 | 0.00 | 0.00 | 63 | 1019.3 |
| 20260831170033 | 89 | 5 | 0.9 | 3.5 | 0.00 | 0.00 | 0.00 | 63 | 1019.3 |
| 20260831165514 | 88 | 119 | 0.0 | 3.5 | 0.00 | 0.00 | 0.00 | 63 | 1019.4 |
| 20260831165004 | 89 | 190 | 1.7 | 3.5 | 0.00 | 0.00 | 0.00 | 63 | 1019.5 |
| 20260831164510 | 89 | 306 | 0.0 | 3.5 | 0.00 | 0.00 | 0.00 | 64 | 1019.6 |
| 20260831164005 | 88 | 355 | 0.9 | 4.3 | 0.00 | 0.00 | 0.00 | 65 | 1019.7 |
| 20260831163504 | 88 | 345 | 0.9 | 4.3 | 0.00 | 0.00 | 0.00 | 64 | 1019.7 |
| 20260831163014 | 89 | 343 | 0.0 | 3.5 | 0.00 | 0.00 | 0.00 | 70 | 1019.8 |
| 20260831162503 | 88 | 347 | 0.9 | 3.5 | 0.00 | 0.00 | 0.00 | 68 | 1019.9 |
| 20260831162003 | 87 | 332 | 0.9 | 3.5 | 0.00 | 0.00 | 0.00 | 68 | 1019.9 |
| 20260831161515 | 87 | 345 | 0.9 | 2.6 | 0.00 | 0.00 | 0.00 | 68 | 1019.9 |
| 20260831161003 | 87 | 30 | 0.9 | 2.6 | 0.00 | 0.00 | 0.00 | 69 | 1019.9 |
| 20260831160503 | 86 | 355 | 0.9 | 2.6 | 0.00 | 0.00 | 0.00 | 70 | 1019.9 |
| 20260831160025 | 86 | 355 | 0.0 | 2.6 | 0.00 | 0.00 | 0.00 | 69 | 1019.9 |
| 20260831155503 | 87 | 331 | 0.0 | 1.7 | 0.00 | 0.00 | 0.00 | 68 | 1020.0 |
| 20260831155006 | 87 | 310 | 0.0 | 0.0 | 0.00 | 0.00 | 0.00 | 69 | 1020.0 |
| 20260831154545 | 86 | 42 | 0.0 | 0.0 | 0.00 | 0.00 | 0.00 | 69 | 1020.0 |
| 20260831154005 | 85 | 301 | 0.0 | 3.5 | 0.00 | 0.00 | 0.00 | 72 | 1020.0 |
| 20260831153523 | 85 | 104 | 0.0 | 4.3 | 0.00 | 0.00 | 0.00 | 74 | 1020.1 |
| 20260831153018 | 85 | 313 | 1.7 | 4.3 | 0.00 | 0.00 | 0.00 | 72 | 1020.1 |
| 20260831152503 | 85 | 26 | 0.9 | 3.5 | 0.00 | 0.00 | 0.00 | 73 | 1020.1 |
| 20260831152005 | 86 | 66 | 0.9 | 3.5 | 0.00 | 0.00 | 0.00 | 73 | 1020.1 |
| 20260831151520 | 85 | 105 | 0.0 | 2.6 | 0.00 | 0.00 | 0.00 | 77 | 1020.1 |
| 20260831151003 | 84 | 27 | 0.9 | 2.6 | 0.00 | 0.00 | 0.00 | 75 | 1020.0 |
| 20260831150505 | 85 | 101 | 0.0 | 1.7 | 0.00 | 0.00 | 0.00 | 77 | 1020.1 |
| 20260831150031 | 83 | 39 | 0.0 | 2.6 | 0.00 | 0.00 | 0.00 | 76 | 1020.1 |
| 20260831145504 | 83 | 124 | 0.0 | 3.5 | 0.00 | 0.00 | 0.00 | 78 | 1020.1 |
| 20260831145006 | 83 | 44 | 0.9 | 3.5 | 0.00 | 0.00 | 0.00 | 77 | 1020.1 |
| 20260831144529 | 82 | 331 | 0.0 | 2.6 | 0.00 | 0.00 | 0.00 | 79 | 1020.1 |
| 20260831144013 | 82 | 338 | 0.9 | 2.6 | 0.00 | 0.00 | 0.00 | 78 | 1020.1 |
| 20260831143509 | 81 | 36 | 0.9 | 3.5 | 0.00 | 0.00 | 0.00 | 79 | 1020.2 |
| 20260831143033 | 81 | 315 | 0.9 | 3.5 | 0.00 | 0.00 | 0.00 | 79 | 1020.2 |
| 20260831142503 | 81 | 360 | 0.0 | 2.6 | 0.00 | 0.00 | 0.00 | 80 | 1020.1 |
| 20260831142011 | 80 | 336 | 0.0 | 1.7 | 0.00 | 0.00 | 0.00 | 81 | 1020.2 |
| 20260831141519 | 79 | 47 | 0.0 | 1.7 | 0.00 | 0.00 | 0.00 | 81 | 1020.1 |
| 20260831141005 | 80 | 5 | 0.0 | 3.5 | 0.00 | 0.00 | 0.00 | 82 | 1020.2 |
| 20260831140507 | 80 | 5 | 0.0 | 3.5 | 0.00 | 0.00 | 0.00 | 81 | 1020.1 |
| 20260831140026 | 80 | 355 | 0.0 | 1.7 | 0.00 | 0.00 | 0.00 | 82 | 1020.2 |
| 20260831135504 | 80 | 355 | 0.0 | 2.6 | 0.00 | 0.00 | 0.00 | 82 | 1020.2 |
| 20260831135010 | 79 | 355 | 0.0 | 2.6 | 0.00 | 0.00 | 0.00 | 82 | 1020.2 |
| 20260831134527 | 79 | 5 | 0.9 | 1.7 | 0.00 | 0.00 | 0.00 | 82 | 1020.1 |
| 20260831134005 | 79 | 9 | 0.0 | 3.5 | 0.00 | 0.00 | 0.00 | 83 | 1020.1 |
| 20260831133511 | 79 | 344 | 0.0 | 4.3 | 0.00 | 0.00 | 0.00 | 82 | 1020.1 |
| 20260831133027 | 79 | 350 | 1.7 | 4.3 | 0.00 | 0.00 | 0.00 | 82 | 1020.1 |
| 20260831132503 | 79 | 348 | 0.9 | 4.3 | 0.00 | 0.00 | 0.00 | 83 | 1020.1 |
| 20260831132012 | 79 | 193 | 0.0 | 2.6 | 0.00 | 0.00 | 0.00 | 84 | 1020.1 |
| 20260831131527 | 78 | 61 | 0.0 | 2.6 | 0.00 | 0.00 | 0.00 | 83 | 1020.0 |
| 20260831131007 | 78 | 13 | 0.0 | 2.6 | 0.00 | 0.00 | 0.00 | 85 | 1020.2 |
| 20260831130513 | 78 | 5 | 0.0 | 2.6 | 0.00 | 0.00 | 0.00 | 83 | 1020.2 |
| 20260831130026 | 78 | 355 | 0.0 | 3.5 | 0.00 | 0.00 | 0.00 | 84 | 1020.3 |
| 20260831125511 | 78 | 346 | 0.0 | 3.5 | 0.00 | 0.00 | 0.00 | 84 | 1020.3 |
| 20260831125016 | 78 | 360 | 0.9 | 2.6 | 0.00 | 0.00 | 0.00 | 84 | 1020.2 |
| 20260831124527 | 78 | 352 | 0.9 | 2.6 | 0.00 | 0.00 | 0.00 | 84 | 1020.1 |
| 20260831124005 | 78 | 333 | 0.0 | 2.6 | 0.00 | 0.00 | 0.00 | 84 | 1020.1 |
| 20260831123512 | 77 | 156 | 0.0 | 2.6 | 0.00 | 0.00 | 0.00 | 85 | 1020.1 |
| 20260831123029 | 77 | 76 | 0.0 | 3.5 | 0.00 | 0.00 | 0.00 | 85 | 1020.0 |
| 20260831122506 | 77 | 121 | 0.9 | 3.5 | 0.00 | 0.00 | 0.00 | 86 | 1020.0 |
| 20260831122011 | 76 | 121 | 0.0 | 1.7 | 0.00 | 0.00 | 0.00 | 87 | 1020.0 |
| 20260831121537 | 76 | 28 | 0.0 | 2.6 | 0.00 | 0.00 | 0.00 | 87 | 1019.9 |
| 20260831121008 | 75 | 26 | 0.0 | 2.6 | 0.00 | 0.00 | 0.00 | 88 | 1019.8 |
| 20260831120518 | 75 | 111 | 0.0 | 1.7 | 0.00 | 0.00 | 0.00 | 89 | 1019.7 |
| 20260831120030 | 74 | 5 | 0.0 | 0.0 | 0.00 | 0.00 | 0.00 | 89 | 1019.8 |
| 20260831115508 | 74 | 34 | 0.0 | 0.0 | 0.00 | 0.00 | 0.00 | 90 | 1019.8 |
| 20260831115014 | 74 | 34 | 0.0 | 0.0 | 0.00 | 0.00 | 0.00 | 90 | 1019.8 |
| 20260831114533 | 73 | 5 | 0.0 | 0.0 | 0.00 | 0.00 | 0.00 | 90 | 1019.8 |
| 20260831114008 | 73 | 5 | 0.0 | 0.0 | 0.00 | 0.00 | 0.00 | 91 | 1019.8 |
| 20260831113515 | 73 | 5 | 0.0 | 0.0 | 0.00 | 0.00 | 0.00 | 90 | 1019.8 |
| 20260831113033 | 73 | 5 | 0.0 | 0.0 | 0.00 | 0.00 | 0.00 | 90 | 1019.7 |
| 20260831112513 | 73 | 5 | 0.0 | 0.9 | 0.00 | 0.00 | 0.00 | 90 | 1019.6 |
| 20260831112014 | 73 | 5 | 0.0 | 0.9 | 0.00 | 0.00 | 0.00 | 90 | 1019.6 |
| 20260831111549 | 73 | 57 | 0.0 | 0.0 | 0.00 | 0.00 | 0.00 | 90 | 1019.5 |
| 20260831111010 | 73 | 57 | 0.0 | 0.9 | 0.00 | 0.00 | 0.00 | 90 | 1019.5 |
| 20260831110512 | 73 | 57 | 0.0 | 0.9 | 0.00 | 0.00 | 0.00 | 90 | 1019.4 |
| 20260831110006 | 73 | 57 | 0.0 | 0.9 | 0.00 | 0.00 | 0.00 | 90 | 1019.4 |
| 20260831105511 | 73 | 26 | 0.0 | 0.0 | 0.00 | 0.00 | 0.00 | 90 | 1019.4 |
| 20260831105019 | 73 | 26 | 0.0 | 0.0 | 0.00 | 0.00 | 0.00 | 89 | 1019.4 |
| 20260831104511 | 73 | 26 | 0.0 | 0.0 | 0.00 | 0.00 | 0.00 | 89 | 1019.5 |
| 20260831104010 | 73 | 26 | 0.0 | 0.0 | 0.00 | 0.00 | 0.00 | 89 | 1019.5 |
| 20260831103515 | 73 | 26 | 0.0 | 0.0 | 0.00 | 0.00 | 0.00 | 89 | 1019.5 |
| 20260831103007 | 73 | 26 | 0.0 | 0.0 | 0.00 | 0.00 | 0.00 | 89 | 1019.4 |
| 20260831102511 | 73 | 26 | 0.0 | 0.0 | 0.00 | 0.00 | 0.00 | 89 | 1019.4 |
| 20260831102016 | 73 | 26 | 0.0 | 0.0 | 0.00 | 0.00 | 0.00 | 89 | 1019.4 |
| 20260831101512 | 73 | 26 | 0.0 | 0.0 | 0.00 | 0.00 | 0.00 | 89 | 1019.3 |
| 20260831101015 | 73 | 26 | 0.0 | 0.0 | 0.00 | 0.00 | 0.00 | 89 | 1019.2 |
| 20260831100516 | 73 | 26 | 0.0 | 0.0 | 0.00 | 0.00 | 0.00 | 89 | 1019.2 |
| 20260831100013 | 73 | 26 | 0.0 | 0.0 | 0.00 | 0.00 | 0.00 | 89 | 1019.1 |
| 20260831095512 | 73 | 26 | 0.0 | 0.0 | 0.00 | 0.00 | 0.00 | 89 | 1019.2 |
| 20260831095016 | 73 | 26 | 0.0 | 0.0 | 0.00 | 0.00 | 0.00 | 88 | 1019.2 |
| 20260831094517 | 74 | 26 | 0.0 | 0.0 | 0.00 | 0.00 | 0.00 | 88 | 1019.2 |